Location: Rounton
(54.4000°N, 1.3500°W)
Time: 19:29:13
(UTC+00:00)

A-11 Canister half - Pass Details

Date: 05 December 2021
Orbit: 1516 x 1684 km, 47.2° (Epoch: 19 January)

Event Time Altitude Azimuth Distance (km) Brightness Sun altitude
Rises 10:57:45 0° 272° (W) 4,845 11.4 12.2°
Reaches altitude 10° 11:00:56 10° 268° (W) 3,879 11.0 12.3°
Maximum altitude 11:10:26 52° 197° (SSW) 2,002 10.5 12.5°
Drops below altitude 10° 11:20:06 10° 125° (SE) 3,945 11.9 12.8°
Sets 11:23:22 0° 120° (ESE) 4,933 12.2 12.9°
